This is the latest recevied weather packets stored in our database for station/object W4MSI. If no packets are shown the sender has not sent any weather packets the latest 1 day(s).
| Time | Temp. | Humidity | Pressure | Rain* | Wind** | Luminosity | Snow |
|---|---|---|---|---|---|---|---|
| 1777972044 | 16.11° C | 68% | 1009.4 hPa | 0 mm | 1.34 m/s, 201° | 0 W/m² | - |
| 1777971743 | 16.11° C | 68% | 1009.2 hPa | 0 mm | 0.89 m/s, 221° | 0 W/m² | - |
| 1777971440 | 16.11° C | 67% | 1009.2 hPa | 0 mm | 0.89 m/s, 201° | 0 W/m² | - |
| 1777971138 | 16.11° C | 67% | 1009.3 hPa | 0 mm | 1.79 m/s, 208° | 0 W/m² | - |
| 1777970835 | 16.11° C | 67% | 1009.4 hPa | 0 mm | 0.89 m/s, 219° | 0 W/m² | - |
| 1777970534 | 16.67° C | 67% | 1009.5 hPa | 0 mm | 1.34 m/s, 208° | 0 W/m² | - |
| 1777970230 | 16.67° C | 66% | 1009.5 hPa | 0 mm | 1.34 m/s, 212° | 0 W/m² | - |
| 1777969927 | 16.67° C | 66% | 1009.5 hPa | 0 mm | 0.89 m/s, 220° | 0 W/m² | - |
| 1777969623 | 16.67° C | 66% | 1009.3 hPa | 0 mm | 1.79 m/s, 206° | 0 W/m² | - |
| 1777969320 | 16.67° C | 65% | 1009.3 hPa | 0 mm | 0.89 m/s, 234° | 0 W/m² | - |
| 1777969016 | 16.67° C | 65% | 1009.1 hPa | 0 mm | 0.89 m/s, 205° | 0 W/m² | - |
| 1777968714 | 16.67° C | 65% | 1009 hPa | 0 mm | 2.68 m/s, 217° | 0 W/m² | - |
| 1777968411 | 16.67° C | 65% | 1009 hPa | 0 mm | 1.79 m/s, 214° | 0 W/m² | - |
| 1777968106 | 16.67° C | 65% | 1008.9 hPa | 0 mm | 1.34 m/s, 195° | 0 W/m² | - |
| 1777967802 | 16.67° C | 64% | 1009 hPa | 0 mm | 1.79 m/s, 198° | 0 W/m² | - |
| 1777967499 | 17.22° C | 64% | 1009.2 hPa | 0 mm | 1.79 m/s, 207° | 0 W/m² | - |
| 1777967196 | 17.22° C | 64% | 1009.1 hPa | 0 mm | 2.68 m/s, 214° | 0 W/m² | - |
| 1777966893 | 17.22° C | 64% | 1009.2 hPa | 0 mm | 0.89 m/s, 212° | 0 W/m² | - |
| 1777966591 | 17.22° C | 64% | 1009.1 hPa | 0 mm | 1.79 m/s, 234° | 0 W/m² | - |
| 1777966289 | 17.22° C | 64% | 1009.1 hPa | 0 mm | 1.34 m/s, 205° | 0 W/m² | - |
| 1777965984 | 17.22° C | 63% | 1009.2 hPa | 0 mm | 1.79 m/s, 172° | 0 W/m² | - |
| 1777965681 | 17.22° C | 63% | 1009 hPa | 0 mm | 3.13 m/s, 210° | 0 W/m² | - |
| 1777965377 | 17.22° C | 64% | 1009 hPa | 0 mm | 1.34 m/s, 193° | 0 W/m² | - |
| 1777965075 | 17.22° C | 64% | 1009.1 hPa | 0 mm | 1.79 m/s, 188° | 0 W/m² | - |
| 1777964772 | 17.22° C | 64% | 1008.8 hPa | 0 mm | 0.89 m/s, 216° | 0 W/m² | - |
* Rain latest hour (hover to see other rain measurements)
** Current wind speed in m/s (hover to see current wind gust speed)